Weather History for Monarch Pass, CO

Change the Weather History Date:

Tuesday, July 30, 2013

  Actual Average (KGUC) Record (KGUC)
Temperature  
Mean Temperature 47 °F -  
Max Temperature 59 °F 76 °F 87 °F (2002)
Min Temperature 35 °F 45 °F 41 °F (2002)
Degree Days  
Heating Degree Days 18    
Moisture  
Dew Point 36 °F    
Average Humidity 68    
Maximum Humidity 100    
Minimum Humidity 36    
Precipitation  
Precipitation 0.00 in - - ()
Sea Level Pressure  
Sea Level Pressure 30.85 in    
Wind  
Wind Speed 21 mph (West)    
Max Wind Speed 31 mph    
Max Gust Speed 37 mph    
Averages and records for this station are not official NWS values.
T = Trace of Precipitation, MM = Missing Value Source: NWS Daily Summary

Daily Weather History Graph

Daily Weather History Graph

Search for Another Location

Airport:

Trip Planner

Search our weather history database for the weather conditions in past years. The results will help you decide how hot, cold, wet, or windy it might be!

Date:

Astronomy

Jul. 30, 2013 Rise Set
Actual Time 6:05 AM MDT 8:17 PM MDT
Civil Twilight 5:36 AM MDT 8:46 PM MDT
Nautical Twilight 4:59 AM MDT 9:22 PM MDT
Astronomical Twilight 4:20 AM MDT 10:02 PM MDT
Moon 12:24 AM MDT (7/30) 2:40 PM MDT (7/30)
Length of Visible Light 15h 10m
Length of Day
14h 11m
Last Quarter, 40% of the Moon is Illuminated
Jul 30
Last Quarter
Aug 6
New
Aug 14
First Quarter
Aug 20
Full
Aug 28
Last Quarter

Hourly Weather History & Observations

Time (MDT) Temp. Windchill Dew Point Humidity Pressure Visibility Wind Dir Wind Speed Gust Speed Precip Events Conditions
12:15 AM 41.0 °F 32.5 °F 35.6 °F 81% 30.77 in - West 17.3 mph - N/A   Clear
12:35 AM 41.0 °F 31.9 °F 35.6 °F 81% 30.77 in - West 19.6 mph - N/A   Clear
12:55 AM 41.0 °F 31.9 °F 35.6 °F 81% 30.79 in - West 19.6 mph - N/A   Clear
1:15 AM 41.0 °F 30.9 °F 35.6 °F 81% 30.78 in - West 24.2 mph - N/A   Scattered Clouds
1:35 AM 41.0 °F 31.6 °F 35.6 °F 81% 30.79 in - West 20.7 mph - N/A   Mostly Cloudy
1:55 AM 39.2 °F 29.3 °F 35.6 °F 87% 30.79 in - West 20.7 mph - N/A   Unknown
2:15 AM 37.4 °F 26.6 °F 35.6 °F 93% 30.79 in - WSW 21.9 mph 25.3 mph N/A   Unknown
2:35 AM 37.4 °F 27.5 °F 35.6 °F 93% 30.78 in - WSW 18.4 mph - N/A   Unknown
2:55 AM 35.6 °F 24.5 °F 35.6 °F 100% 30.77 in - WSW 20.7 mph - N/A   Unknown
3:15 AM 37.4 °F 26.4 °F 35.6 °F 93% 30.77 in - West 23.0 mph - N/A   Unknown
3:35 AM 37.4 °F 26.9 °F 35.6 °F 93% 30.77 in - West 20.7 mph - N/A   Unknown
3:55 AM 37.4 °F 26.6 °F 35.6 °F 93% 30.77 in - West 21.9 mph - N/A   Unknown
4:15 AM 37.4 °F 27.2 °F 35.6 °F 93% 30.77 in - West 19.6 mph - N/A   Unknown
4:35 AM 37.4 °F 27.2 °F 35.6 °F 93% 30.78 in - West 19.6 mph - N/A   Unknown
4:55 AM 37.4 °F 26.9 °F 35.6 °F 93% 30.79 in - West 20.7 mph - N/A   Unknown
5:15 AM 37.4 °F 26.4 °F 35.6 °F 93% 30.79 in - WSW 23.0 mph - N/A   Unknown
5:35 AM 37.4 °F 26.4 °F 35.6 °F 93% 30.79 in - West 23.0 mph - N/A   Unknown
5:55 AM 37.4 °F 26.9 °F 35.6 °F 93% 30.79 in - West 20.7 mph - N/A   Unknown
6:15 AM 37.4 °F 25.9 °F 35.6 °F 93% 30.79 in - West 25.3 mph - N/A   Unknown
6:35 AM 37.4 °F 27.2 °F 35.6 °F 93% 30.81 in - WSW 19.6 mph - N/A   Mostly Cloudy
6:55 AM 37.4 °F 27.8 °F 35.6 °F 93% 30.81 in - SW 17.3 mph - N/A   Overcast
7:15 AM 37.4 °F 26.9 °F 35.6 °F 93% 30.81 in - West 20.7 mph - N/A   Unknown
7:35 AM 39.2 °F 28.5 °F 35.6 °F 87% 30.81 in - West 24.2 mph - N/A   Unknown
7:55 AM 41.0 °F 32.2 °F 35.6 °F 81% 30.83 in - WNW 18.4 mph - N/A   Unknown
8:15 AM 42.8 °F 33.8 °F 35.6 °F 76% 30.83 in - West 21.9 mph 25.3 mph N/A   Clear
8:35 AM 42.8 °F 33.8 °F 35.6 °F 76% 30.84 in - West 21.9 mph 27.6 mph N/A   Clear
8:55 AM 42.8 °F 34.3 °F 37.4 °F 81% 30.84 in - WSW 19.6 mph 28.8 mph N/A   Clear
9:15 AM 42.8 °F 34.0 °F 37.4 °F 81% 30.84 in - West 20.7 mph 28.8 mph N/A   Clear
9:35 AM 42.8 °F 33.1 °F 39.2 °F 87% 30.84 in - WSW 25.3 mph 29.9 mph N/A   Unknown
9:55 AM 44.6 °F 35.5 °F 39.2 °F 81% 30.84 in - West 25.3 mph 32.2 mph N/A   Clear
10:15 AM 44.6 °F 36.4 °F 41.0 °F 87% 30.86 in - West 20.7 mph - N/A   Scattered Clouds
10:35 AM 44.6 °F 36.4 °F 41.0 °F 87% 30.87 in - WSW 20.7 mph 31.1 mph N/A   Scattered Clouds
10:55 AM 46.4 °F 38.3 °F 41.0 °F 81% 30.87 in - West 23.0 mph 29.9 mph N/A   Clear
11:15 AM 48.2 °F - 41.0 °F 76% 30.88 in - West 16.1 mph 29.9 mph N/A   Scattered Clouds
11:35 AM 50.0 °F - 41.0 °F 71% 30.88 in - West 26.5 mph 33.4 mph N/A   Scattered Clouds
11:55 AM 50.0 °F - 41.0 °F 71% 30.88 in - West 25.3 mph 29.9 mph N/A   Scattered Clouds
12:15 PM 51.8 °F - 41.0 °F 67% 30.88 in - West 31.1 mph 36.8 mph N/A   Clear
12:35 PM 51.8 °F - 41.0 °F 67% 30.88 in - West 20.7 mph 33.4 mph N/A   Mostly Cloudy
12:55 PM 51.8 °F - 41.0 °F 67% 30.88 in - West 23.0 mph 28.8 mph N/A   Mostly Cloudy
1:15 PM 51.8 °F - 39.2 °F 62% 30.87 in - West 27.6 mph 35.7 mph N/A   Mostly Cloudy
1:35 PM 53.6 °F - 41.0 °F 62% 30.88 in - West 20.7 mph 35.7 mph N/A   Mostly Cloudy
1:55 PM 53.6 °F - 39.2 °F 58% 30.88 in - West 27.6 mph 34.5 mph N/A   Mostly Cloudy
2:15 PM 53.6 °F - 37.4 °F 54% 30.88 in - West 29.9 mph 35.7 mph N/A   Mostly Cloudy
2:35 PM 53.6 °F - 35.6 °F 51% 30.88 in - West 24.2 mph 36.8 mph N/A   Mostly Cloudy
2:55 PM 51.8 °F - 35.6 °F 54% 30.89 in - West 19.6 mph 29.9 mph N/A   Overcast
3:15 PM 50.0 °F - 37.4 °F 62% 30.89 in - West 27.6 mph - N/A   Overcast
3:35 PM 55.4 °F - 37.4 °F 51% 30.89 in - West 21.9 mph 29.9 mph N/A   Scattered Clouds
3:55 PM 55.4 °F - 37.4 °F 51% 30.89 in - West 18.4 mph 32.2 mph N/A   Scattered Clouds
4:15 PM 57.2 °F - 35.6 °F 44% 30.88 in - WSW 23.0 mph 31.1 mph N/A   Scattered Clouds
4:35 PM 55.4 °F - 33.8 °F 44% 30.89 in - West 17.3 mph 32.2 mph N/A Thunderstorm Scattered Clouds
4:55 PM 55.4 °F - 32.0 °F 41% 30.89 in - WSW 20.7 mph 33.4 mph N/A   Mostly Cloudy
5:15 PM 59.0 °F - 32.0 °F 36% 30.89 in - West 21.9 mph 31.1 mph N/A   Scattered Clouds
5:35 PM 59.0 °F - 32.0 °F 36% 30.89 in - West 23.0 mph 31.1 mph N/A   Clear
5:55 PM 57.2 °F - 32.0 °F 38% 30.89 in - West 21.9 mph 29.9 mph N/A   Clear
6:15 PM 57.2 °F - 32.0 °F 38% 30.89 in - West 18.4 mph 27.6 mph N/A   Clear
6:35 PM 57.2 °F - 32.0 °F 38% 30.89 in - West 18.4 mph 26.5 mph N/A   Clear
6:55 PM 55.4 °F - 32.0 °F 41% 30.89 in - West 21.9 mph - N/A   Clear
7:15 PM 55.4 °F - 32.0 °F 41% 30.89 in - WSW 20.7 mph 24.2 mph N/A   Clear
7:35 PM 55.4 °F - 32.0 °F 41% 30.90 in - West 16.1 mph - N/A   Clear
7:55 PM 53.6 °F - 32.0 °F 44% 30.89 in - West 16.1 mph 19.6 mph N/A   Clear
8:15 PM 51.8 °F - 32.0 °F 47% 30.89 in - West 13.8 mph - N/A   Clear
8:35 PM 51.8 °F - 32.0 °F 47% 30.90 in - West 16.1 mph - N/A   Clear
8:55 PM 50.0 °F - 32.0 °F 50% 30.90 in - West 15.0 mph - N/A   Clear
9:15 PM 50.0 °F - 32.0 °F 50% 30.91 in - West 15.0 mph - N/A   Clear
9:35 PM 50.0 °F - 32.0 °F 50% 30.92 in - West 11.5 mph - N/A   Clear
9:55 PM 50.0 °F - 32.0 °F 50% 30.92 in - West 11.5 mph - N/A   Clear
10:15 PM 50.0 °F - 32.0 °F 50% 30.92 in - West 15.0 mph - N/A   Clear
10:35 PM 50.0 °F - 32.0 °F 50% 30.92 in - West 25.3 mph - N/A   Clear
10:55 PM 50.0 °F - 32.0 °F 50% 30.92 in - West 18.4 mph - N/A   Clear
11:15 PM 50.0 °F - 32.0 °F 50% 30.92 in - West 15.0 mph - N/A   Clear
11:35 PM 50.0 °F - 30.2 °F 47% 30.92 in - West 17.3 mph - N/A   Clear
11:55 PM 48.2 °F - 28.4 °F 46% 30.91 in - West 20.7 mph - N/A   Clear